Simultaneous Nadir Overpasses (SNOs) Predictions

Prediction of SNOs between GOES-15 and TERRA Satellite Orbit:

Table of predicted SNOs for the next 14.0 days since TLE Epoch: 10/4/2014
Index Date Time (GOES-15) GOES-15 Lat,Lon TERRA Lat,Lon Distance(km) Time Diff (sec)
1 10/04/2014 19:16:02 -0.34,-135.36 -1.20,-131.27 464.35 80
2 10/05/2014 07:37:26 0.34,-135.32 0.12,-136.47 130.46 80
3 10/07/2014 07:22:35 0.34,-135.32 0.71,-133.51 205.55 80
4 10/07/2014 19:43:51 -0.34,-135.36 0.36,-138.68 376.66 80
5 10/09/2014 19:31:40 -0.34,-135.36 -0.26,-135.72 40.97 80
6 10/11/2014 19:22:09 -0.34,-135.36 -0.90,-132.77 294.37 80
7 10/12/2014 07:43:33 0.33,-135.32 -0.22,-137.96 300.11 80
8 10/14/2014 07:28:41 0.33,-135.31 0.39,-135.00 34.77 80
9 10/16/2014 07:16:29 0.32,-135.29 1.02,-132.04 369.39 80
10 10/16/2014 19:37:44 -0.32,-135.32 0.10,-137.19 213.59 80




NCC Satellite Simultaneous Nadir Overpasses (SNOs) Prediction Service
